Location: Gettysburg
(39.8310°N, 77.2310°W)
Time: 12:00:48
(UTC-04:00)

ATLAS 2AS CENTAUR R/B - Visible Passes

Search period start: 23 June 2018 00:00
Search period end: 03 July 2018 00:00
Orbit: 912 x 1300 km, 63.7° (Epoch: 17 June)

Date Brightness Start Highest point End Pass type
(mag) Time Alt. Az. Time Alt. Az. Time Alt. Az.
23 Jun 5.8 01:13:26 10° NW 01:17:30 14° NNW 01:21:34 10° NNE visible
23 Jun 5.9 03:09:10 10° NNW 03:12:33 13° NNE 03:15:52 10° NE visible
23 Jun 5.2 04:59:46 10° NNW 05:06:35 30° NE 05:12:58 10° E visible
23 Jun 4.0 22:30:58 10° WSW 22:38:34 51° NW 22:46:27 10° NNE visible
24 Jun 5.6 00:26:34 10° WNW 00:31:41 18° NNW 00:36:50 10° NNE visible
24 Jun 6.0 02:23:54 10° NNW 02:26:34 12° N 02:29:13 10° NNE visible
24 Jun 5.6 04:15:06 10° NNW 04:21:06 22° NNE 04:26:47 10° E visible
24 Jun 3.4 21:45:44 10° SW 21:53:31 73° NW 22:01:41 10° NNE visible
24 Jun 5.4 23:39:58 10° W 23:46:01 23° NNW 23:52:10 10° NNE visible
25 Jun 6.0 01:37:51 10° NNW 01:40:34 12° N 01:43:15 10° NNE visible
25 Jun 5.8 03:30:25 10° NNW 03:35:26 17° NNE 03:40:16 10° ENE visible
25 Jun 3.1 21:00:54 10° SSW 21:08:39 79° ESE 21:16:48 10° NE visible
25 Jun 5.0 22:53:43 10° W 23:00:31 30° NW 23:07:30 10° NNE visible
26 Jun 6.0 00:51:06 10° NW 00:54:35 13° NNW 00:58:02 10° NNE visible
26 Jun 6.0 02:45:40 10° NNW 02:49:37 14° NNE 02:53:30 10° NE visible
26 Jun 4.7 04:36:07 10° NNW 04:43:19 36° NE 04:50:01 10° ESE visible
26 Jun 4.5 22:07:50 10° WSW 22:15:12 41° NW 22:22:50 10° NNE visible
27 Jun 5.9 00:04:11 10° NW 00:08:42 15° NNW 00:13:12 10° NNE visible
27 Jun 6.1 02:00:40 10° NNW 02:03:41 12° N 02:06:40 10° NNE visible
27 Jun 5.2 03:51:27 10° NNW 03:57:56 26° NE 04:04:03 10° E visible
27 Jun 3.8 21:22:22 10° SW 21:30:04 59° NW 21:38:06 10° NNE visible
27 Jun 5.7 23:17:25 10° WNW 23:22:56 19° NNW 23:28:30 10° NNE visible
28 Jun 6.1 01:15:06 10° NNW 01:17:41 12° N 01:20:16 10° NNE visible
28 Jun 5.6 03:06:47 10° NNW 03:12:23 20° NNE 03:17:44 10° ENE visible
28 Jun 3.6 04:57:14 10° NNW 05:05:05 64° NE 05:12:15 10° SE visible
28 Jun 5.4 22:30:57 10° W 22:37:20 25° NW 22:43:50 10° NNE visible
29 Jun 6.1 00:28:43 10° NNW 00:31:41 12° N 00:34:38 10° NNE visible
29 Jun 5.8 02:22:04 10° NNW 02:26:38 16° NNE 02:31:06 10° ENE visible
29 Jun 4.2 04:12:29 10° NNW 04:19:59 44° NE 04:26:55 10° ESE visible
29 Jun 4.9 21:44:50 10° WSW 21:51:55 34° NW 21:59:11 10° NNE visible
29 Jun 6.0 23:41:51 10° NW 23:45:44 14° NNW 23:49:37 10° NNE visible
30 Jun 5.9 01:37:15 10° NNW 01:40:47 13° NNE 01:44:16 10° NE visible
30 Jun 4.8 03:27:47 10° NNW 03:34:43 32° NE 03:41:12 10° E visible
30 Jun 4.4 20:59:08 10° WSW 21:06:40 48° NW 21:14:29 10° NNE visible
30 Jun 5.8 22:54:58 10° WNW 22:59:54 17° NNW 23:04:51 10° NNE visible
01 Jul 6.0 00:52:04 10° NNW 00:54:49 12° N 00:57:33 10° NNE visible
01 Jul 5.3 02:43:07 10° NNW 02:49:16 23° NNE 02:55:06 10° E visible
01 Jul 3.1 04:33:41 10° NNW 04:41:35 80° NE 04:48:47 10° SE visible
01 Jul 5.7 22:08:18 10° WNW 22:14:13 22° NNW 22:20:10 10° NNE visible
02 Jul 6.0 00:06:10 10° NNW 00:08:49 12° N 00:11:27 10° NNE visible
02 Jul 5.6 01:58:27 10° NNW 02:03:38 18° NNE 02:08:38 10° ENE visible
02 Jul 3.7 03:48:52 10° NNW 03:56:36 55° NE 04:03:42 10° SE visible
02 Jul 5.3 21:21:59 10° W 21:28:41 29° NW 21:35:31 10° NNE visible
02 Jul 5.9 23:19:31 10° NW 23:22:49 13° N 23:26:07 10° NNE visible
